CW8081 Thessaloniki GR current weather conditions

sailwx.info

Wind from 283 at 6 knots gusting 13

Air temperature 31.7° C
Dewpoint 20.6° C

Last reported at 2016-Jul-26 11:41 UTC.
Time now 2016-Jul-26 12:11 UTC

Location: N 40°34' E 022°58'.
View on Google Maps.

See reports from other nearby stations

  
Tides and Currents Weather Stations Pressure Air Temp Water Temp Dewpoint Dewpoint Depression Visibility Wind Speed Wind Dir Waves Ship Positions
date/time (UTC)wind fromknots sea level pressurealtimeterstation pressurevisibilityair tempwater tempwave heightnotes
2016-Jul-26 11:41 283 6 gusting 13 31.7
2016-Jul-26 11:31 273 8 gusting 15 31.7
2016-Jul-26 11:11 267 4 gusting 10 31.7
2016-Jul-26 11:01 271 6 gusting 12 31.1
2016-Jul-26 10:31 277 6 gusting 12 31.1
2016-Jul-26 10:11 300 4 gusting 10 30.6
2016-Jul-26 10:01 265 5 gusting 12 30.6
2016-Jul-26 09:31 255 6 gusting 12 30.0
2016-Jul-26 09:11 238 5 gusting 8 29.4
2016-Jul-26 09:01 298 4 gusting 12 29.4
2016-Jul-26 08:41 249 5 gusting 10 29.4
2016-Jul-26 08:31 270 4 gusting 10 29.4
2016-Jul-26 08:11 288 3 gusting 10 28.9
2016-Jul-26 08:01 269 6 gusting 10 28.9
2016-Jul-26 07:41 336 5 gusting 8 28.3
2016-Jul-26 07:31 313 4 gusting 10 28.3
2016-Jul-26 07:01 259 28.3
2016-Jul-26 06:41 196 3 gusting 6 27.8
2016-Jul-26 06:31 209 3 gusting 6 27.8
2016-Jul-26 06:01 146 26.7
2016-Jul-26 05:41 145 26.1
2016-Jul-26 05:31 145 25.6
2016-Jul-26 05:11 145 25.6
2016-Jul-26 05:01 145 26.1
2016-Jul-26 04:41 145 26.1
2016-Jul-26 04:11 151 1 gusting 5 26.7
2016-Jul-26 04:01 338 26.7
2016-Jul-26 03:31 331 26.1
2016-Jul-26 03:11 331 26.1
2016-Jul-26 03:01 331 26.1
2016-Jul-26 02:41 333 26.1
2016-Jul-26 02:31 298 26.1
2016-Jul-26 02:11 269 26.1
2016-Jul-26 01:11 252 26.1
2016-Jul-26 01:01 252 26.1
2016-Jul-26 00:41 252 25.6
2016-Jul-26 00:31 252 25.6
2016-Jul-26 00:11 252 25.6
2016-Jul-26 00:01 252 25.6
2016-Jul-25 23:41 252 25.6
2016-Jul-25 23:11 252 26.1
2016-Jul-25 23:01 252 26.7
2016-Jul-25 22:41 291 26.7
2016-Jul-25 22:01 291 2 gusting 4 26.7
2016-Jul-25 21:11 206 27.2
2016-Jul-25 20:41 206 27.2
2016-Jul-25 20:31 206 27.2
2016-Jul-25 20:11 206 27.2
2016-Jul-25 19:41 205 27.2
2016-Jul-25 19:31 205 27.2
2016-Jul-25 19:11 206 27.2
2016-Jul-25 19:01 206 27.2
2016-Jul-25 18:31 206 0 gusting 4 27.8
2016-Jul-25 18:11 206 0 gusting 4 27.8
2016-Jul-25 18:01 207 27.8
2016-Jul-25 17:41 207 2 gusting 6 28.3
2016-Jul-25 17:11 218 4 gusting 6 28.9
2016-Jul-25 16:41 194 5 gusting 8 30.6
2016-Jul-25 16:31 212 5 gusting 8 30.6
2016-Jul-25 16:11 178 5 gusting 7 31.1
2016-Jul-25 16:01 184 6 gusting 10 31.1
2016-Jul-25 15:41 180 4 gusting 10 31.7
2016-Jul-25 15:31 197 4 gusting 10 31.7
2016-Jul-25 15:11 199 6 gusting 12 32.2
2016-Jul-25 14:41 181 6 gusting 13 32.2
2016-Jul-25 14:31 194 4 gusting 13 32.8
2016-Jul-25 13:41 246 5 gusting 12 32.2
2016-Jul-25 13:31 246 5 gusting 11 32.2
2016-Jul-25 13:11 247 5 gusting 11 31.7
2016-Jul-25 13:01 251 5 gusting 11 31.7
2016-Jul-25 12:41 262 4 gusting 10 31.7
2016-Jul-25 12:31 257 5 gusting 10 31.7
2016-Jul-25 12:11 245 4 gusting 10 31.1
2016-Jul-25 12:01 225 5 gusting 10 31.1
2016-Jul-25 11:41 246 6 gusting 10 31.1
2016-Jul-25 11:31 259 6 gusting 11 31.1
2016-Jul-25 11:11 277 6 gusting 11 31.1
2016-Jul-25 11:01 252 6 gusting 11 31.1
2016-Jul-25 10:31 252 6 gusting 11 30.6
2016-Jul-25 10:01 229 4 gusting 11 30.0
2016-Jul-25 09:41 281 5 gusting 10 29.4
2016-Jul-25 09:31 214 5 gusting 10 29.4
2016-Jul-25 09:01 238 5 gusting 10 29.4
2016-Jul-25 08:31 309 5 gusting 10 28.9
2016-Jul-25 08:11 246 5 gusting 7 28.9
2016-Jul-25 08:01 256 5 gusting 7 28.9
2016-Jul-25 07:41 263 4 gusting 6 27.8
2016-Jul-25 07:31 266 3 gusting 6 28.3
2016-Jul-25 07:01 213 0 gusting 5 28.3
2016-Jul-25 06:41 219 2 gusting 5 27.8
2016-Jul-25 06:31 205 4 gusting 6 28.3
2016-Jul-25 06:11 281 27.2
2016-Jul-25 06:01 319 26.7
2016-Jul-25 05:11 232 1 gusting 6 26.1
2016-Jul-25 04:41 139 25.6
2016-Jul-25 04:31 138 25.6
2016-Jul-25 04:11 138 25.6
2016-Jul-25 03:41 138 25.6
2016-Jul-25 03:11 138 25.6
2016-Jul-25 03:01 138 26.1
2016-Jul-25 02:41 138 26.1
2016-Jul-25 02:31 138 26.1
2016-Jul-25 02:11 138 26.7
2016-Jul-25 02:01 138 26.7
2016-Jul-25 01:41 138 26.7
2016-Jul-25 01:31 138 26.7
2016-Jul-25 01:01 141 27.2
2016-Jul-25 00:41 141 27.2
2016-Jul-25 00:31 141 27.2
2016-Jul-24 23:41 141 27.8
2016-Jul-24 23:31 141 28.3
2016-Jul-24 23:01 118 28.3
2016-Jul-24 22:31 117 28.3
2016-Jul-24 22:11 146 27.8
2016-Jul-24 21:31 147 28.3
2016-Jul-24 21:11 147 28.3
2016-Jul-24 21:01 147 27.8
2016-Jul-24 20:41 147 27.8
2016-Jul-24 20:31 147 27.8
2016-Jul-24 19:31 147 1 gusting 4 28.9
2016-Jul-24 19:01 148 0 gusting 6 29.4
2016-Jul-24 18:41 167 29.4
2016-Jul-24 18:31 167 1 gusting 5 30.0
2016-Jul-24 18:11 166 0 gusting 5 30.0
2016-Jul-24 17:41 155 2 gusting 6 30.6
2016-Jul-24 17:31 160 4 gusting 10 30.6
2016-Jul-24 17:11 173 4 gusting 11 31.7
2016-Jul-24 17:01 147 5 gusting 12 32.2
2016-Jul-24 16:31 168 4 gusting 8 32.8
2016-Jul-24 16:11 182 5 gusting 10 33.3
2016-Jul-24 15:11 205 6 gusting 11 35.0
2016-Jul-24 15:01 200 6 gusting 12 35.0
2016-Jul-24 14:41 200 5 gusting 11 35.0
2016-Jul-24 14:31 199 6 gusting 12 35.6
2016-Jul-24 14:11 182 5 gusting 12 35.6
2016-Jul-24 13:41 208 6 gusting 12 35.0
2016-Jul-24 13:31 209 7 gusting 13 34.4
2016-Jul-24 12:41 226 4 gusting 10 35.0
2016-Jul-24 12:31 247 6 gusting 11 35.0
2016-Jul-24 12:01 234 4 gusting 10 34.4